[[{"header":{"parameterUnit":"m.s-1","parameterCategory":2,"la1":30.2991,"la2":30.254,"lo1":-89.0895,"lo2":-89.0444,"dy":0.0017,"dx":0.0017,"nx":28,"ny":28,"refTime":"2025-03-12T09:00:00:Z","depth":"0","parameterNumber":2,"parameterNumberName":"U-component_of_CURRENTS"},"data":[0,0,0,0,0,0,0,0,0,0,0,0,0,0,0,0,0,0,0,0,0,0,0,0,0,0,0,0,0,0,0,0,0,0,0,0,0,0,0,0,0,0,0,0,0,0,0,0,0,0,0,0,0,0,0,0,0,0,0.121,0.121,0,0.1231,0.1231,0.1231,0.1251,0.1251,0.1251,0.1252,0.1278,0.1278,0.1278,0,0,0,0,0,0,0,0,0,0,0,0,0,0.12,0.12,0.121,0.121,0.121,0.1231,0.1231,0.1231,0.1251,0.1251,0.1252,0.1252,0.1278,0.1278,0.1278,0,0,0,0,0,0,0,0,0,0,0,0,0,0.121,0.12,0.121,0.1223,0.1225,0.1231,0.1231,0.1231,0.1251,0.1251,0.1252,0.1252,0.1277,0.1278,0.1279,0.1273,0,0,0.128,0.1281,0,0,0,0,0,0,0,0,0.1209,0.121,0.1221,0.1222,0.1224,0.1239,0.1237,0.1246,0.1251,0.124,0.1252,0.1252,0.1265,0.1267,0.1269,0.1274,0.1276,0.128,0.1281,0.1281,0.1281,0,0,0,0,0,0,0,0.1209,0.121,0.1217,0.1221,0.1223,0.1233,0.1234,0.1239,0.1249,0.1241,0.1243,0.1246,0.1266,0.1268,0.127,0.1276,0.128,0.1281,0.1281,0.1282,0.1288,0.1288,0,0,0,0,0,0,0.1206,0.1209,0.1217,0.1218,0.1218,0.1232,0.1234,0.1233,0.1249,0.1252,0.1245,0.1247,0.1267,0.1269,0.1271,0.1283,0.1281,0.1282,0.1282,0.1288,0.1288,0.1288,0,0,0,0,0,0,0.1206,0.1206,0.1216,0.1215,0.1217,0.1232,0.1231,0.1233,0.124,0.1253,0.1256,0.1249,0.1267,0.127,0.1279,0.1284,0.1282,0.1283,0.1288,0.1288,0.1288,0.1296,0,0,0,0,0,0,0.1205,0.1206,0.1202,0.1214,0.1217,0.1221,0.123,0.1234,0.1241,0.1243,0.1257,0.126,0.1268,0.1278,0.128,0.1284,0.1283,0.1289,0.1288,0.1288,0.1296,0.1296,0.1297,0,0,0,0,0,0.1205,0.1197,0.1201,0.1202,0.1211,0.1221,0.1223,0.1235,0.1241,0.1242,0.1254,0.1259,0.1277,0.1279,0.128,0.1285,0.1289,0.1288,0.1288,0.1296,0.1296,0.1297,0,0,0,0,0,0,0.1183,0.1199,0.1204,0.1199,0.121,0.1225,0.1225,0.1235,0.1244,0.1246,0.1259,0.1262,0.1274,0.1273,0.1275,0.1284,0.1283,0.1282,0.1288,0.1289,0.1289,0.1299,0.1284,0,0,0,0,0,0.1178,0.1182,0.1195,0.1192,0.1196,0.121,0.1215,0.1226,0.1237,0.1242,0.1253,0.1262,0.1272,0.1276,0.1284,0.1287,0.1298,0.1289,0.1289,0.1289,0.1298,0.1308,0.131,0.1286,0.1286,0.1286,0,0,0.1167,0.1178,0.1179,0.1189,0.1197,0.1204,0.1214,0.1222,0.1233,0.1242,0.1257,0.1266,0.1274,0.1283,0.1287,0.1283,0.1304,0.1289,0.1289,0.1298,0.1308,0.131,0.1313,0.1286,0.1286,0.1286,0,0,0.1153,0.1158,0.1159,0.117,0.1185,0.1198,0.12,0.1217,0.1229,0.1242,0.1254,0.1265,0.1275,0.1286,0.1291,0.1293,0.1307,0.1292,0.1299,0.1309,0.1311,0.1313,0.1341,0.1345,0.1288,0.1288,0.1288,0,0.1135,0.1144,0.1159,0.1165,0.1175,0.1195,0.1199,0.1213,0.1234,0.1246,0.1247,0.1274,0.1278,0.1296,0.1299,0.1295,0.1309,0.13,0.131,0.1312,0.1315,0.1342,0.1347,0.1288,0.1288,0.1288,0.1288,0,0.1129,0.1135,0.1136,0.1154,0.1166,0.1173,0.1197,0.1212,0.1228,0.1246,0.127,0.1279,0.1296,0.1296,0.13,0.1318,0.1327,0.1313,0.1313,0.1318,0.1346,0.1351,0.1289,0.1289,0.1289,0.1289,0,0,0.1079,0.1123,0.1121,0.1135,0.1163,0.1173,0.1194,0.1221,0.124,0.1259,0.1285,0.1299,0.1311,0.1318,0.1323,0.133,0.1358,0.133,0.133,0.1363,0.1397,0.1468,0.1481,0.1347,0.1348,0.1348,0.1415,0,0.1065,0.1087,0.111,0.1126,0.1138,0.1168,0.1188,0.1217,0.1245,0.1275,0.1295,0.1318,0.1318,0.1327,0.1337,0.136,0.137,0.1342,0.1382,0.1384,0.1452,0.1489,0.157,0.1642,0.142,0.1421,0.1422,0,0.1044,0.1069,0.1087,0.1129,0.1134,0.1145,0.1188,0.1209,0.1257,0.128,0.1312,0.1333,0.1367,0.1351,0.14,0.1385,0.1392,0.1402,0.1404,0.1473,0.1465,0.1598,0.166,0.1685,0.143,0.1429,0.1428,0,0.1016,0.1047,0.1068,0.108,0.1127,0.1138,0.1162,0.1208,0.1232,0.1286,0.1312,0.1356,0.1385,0.1403,0.1446,0.1419,0.1502,0.1461,0.1531,0.1536,0.1617,0.1628,0.1715,0.1479,0.1479,0.1479,0.1478,0,0.0994,0.1,0.1056,0.1066,0.1083,0.1122,0.1144,0.1178,0.1229,0.1264,0.1311,0.1355,0.1397,0.1454,0.1468,0.1549,0.1523,0.1556,0.1565,0.1623,0.1634,0.1667,0.1605,0.1481,0.148,0.148,0.148,0,0.094,0.0982,0.1002,0.1056,0.1069,0.1078,0.1125,0.115,0.1203,0.1252,0.1271,0.1365,0.1462,0.152,0.1575,0.1593,0.1644,0.1665,0.175,0.1769,0.185,0.1783,0.1746,0.173,0.1754,0.1756,0.1758,0,0.0909,0.0921,0.0982,0.0999,0.1016,0.1041,0.1065,0.1124,0.1159,0.1261,0.1289,0.1406,0.1501,0.165,0.1741,0.1825,0.1738,0.1906,0.1861,0.1895,0.1826,0.1691,0.1669,0.197,0.1973,0.1976,0.1978,0,0.0848,0.0876,0.0905,0.095,0.0976,0.1003,0.1045,0.107,0.1151,0.1212,0.1317,0.1404,0.1608,0.1777,0.1919,0.1965,0.189,0.1966,0.1977,0.1993,0.1876,0.1853,0.1887,0.2004,0.2001,0.1999,0.1998,0.1997,0.0794,0.0806,0.0864,0.0894,0.0931,0.0967,0.0985,0.1052,0.1115,0.1221,0.1315,0.1469,0.1758,0.2002,0.2055,0.2236,0.2057,0.2233,0.2148,0.2009,0.1997,0.2102,0.224,0.2238,0.2237,0.2237,0.2236,0,0.0732,0.077,0.0806,0.0859,0.0884,0.0918,0.0975,0.1004,0.108,0.1225,0.1334,0.1653,0.1914,0.2134,0.2408,0.2427,0.2327,0.2399,0.2241,0.2208,0.2326,0.2346,0.2545,0.2545,0.2545,0.2545,0.2545,0.2545,0.0704,0.073,0.0764,0.08,0.0834,0.0862,0.0888,0.0955,0.106,0.1258,0.1443,0.1602,0.1968,0.2364,0.256,0.2537,0.2388,0.2343,0.2241,0.2366,0.2344,0.2323,0.2334,0.2527,0.2526,0.2158,0.2155,0.2153]},{"header":{"parameterUnit":"m.s-1","parameterCategory":2,"la1":30.2991,"la2":30.254,"lo1":-89.0895,"lo2":-89.0444,"dy":0.0017,"dx":0.0017,"nx":28,"ny":28,"refTime":"2025-03-12T09:00:00:Z","depth":"0","parameterNumber":3,"parameterNumberName":"V-component_of_CURRENTS"},"data":[0,0,0,0,0,0,0,0,0,0,0,0,0,0,0,0,0,0,0,0,0,0,0,0,0,0,0,0,0,0,0,0,0,0,0,0,0,0,0,0,0,0,0,0,0,0,0,0,0,0,0,0,0,0,0,0,0,0,0.0141,0.0141,0,0.0161,0.0162,0.0162,0.0192,0.0192,0.0193,0.0193,0.0202,0.0202,0.0202,0,0,0,0,0,0,0,0,0,0,0,0,0,0.0152,0.0152,0.0141,0.0141,0.0141,0.0161,0.0162,0.0162,0.0192,0.0192,0.0193,0.0193,0.0202,0.0202,0.0202,0,0,0,0,0,0,0,0,0,0,0,0,0,0.0159,0.0152,0.0141,0.0157,0.0158,0.0161,0.0162,0.0162,0.0192,0.0192,0.0193,0.0193,0.0202,0.0202,0.0202,0.0192,0,0,0.0202,0.0202,0,0,0,0,0,0,0,0,0.0159,0.0159,0.0154,0.0156,0.0157,0.0173,0.0169,0.0171,0.0192,0.0181,0.0193,0.0193,0.019,0.0191,0.0197,0.0192,0.0193,0.0202,0.0202,0.0202,0.0202,0,0,0,0,0,0,0,0.0158,0.0158,0.0151,0.0154,0.0156,0.0171,0.0173,0.017,0.0184,0.0182,0.0184,0.0183,0.0191,0.0197,0.0197,0.0193,0.0202,0.0202,0.0202,0.0202,0.0159,0.0158,0,0,0,0,0,0,0.0149,0.0158,0.0151,0.0152,0.0157,0.017,0.0172,0.0169,0.0184,0.0187,0.0182,0.0184,0.0197,0.0197,0.0197,0.0177,0.0202,0.0202,0.0202,0.016,0.0158,0.0157,0,0,0,0,0,0,0.015,0.0148,0.015,0.0154,0.0155,0.0169,0.0166,0.0169,0.0175,0.0184,0.0187,0.0184,0.0197,0.0197,0.019,0.0178,0.0202,0.0202,0.0161,0.0159,0.0158,0.0142,0,0,0,0,0,0,0.015,0.0148,0.0149,0.0153,0.0154,0.0151,0.0165,0.0169,0.0172,0.0175,0.0186,0.0188,0.0197,0.019,0.019,0.0178,0.0202,0.0162,0.016,0.0158,0.0144,0.014,0.0137,0,0,0,0,0,0.015,0.0153,0.0149,0.0149,0.0153,0.0151,0.0153,0.0167,0.0172,0.0174,0.0177,0.0187,0.0177,0.019,0.019,0.0178,0.0163,0.0161,0.0158,0.0146,0.0141,0.0137,0,0,0,0,0,0,0.0158,0.0156,0.0152,0.0154,0.0149,0.0155,0.0162,0.0162,0.0167,0.017,0.0178,0.0179,0.0167,0.017,0.0183,0.0156,0.017,0.0167,0.016,0.0155,0.0152,0.0159,0.0202,0,0,0,0,0,0.0157,0.0161,0.0153,0.0153,0.0151,0.0152,0.0155,0.0157,0.0159,0.0163,0.0166,0.0164,0.0156,0.0155,0.0151,0.0139,0.0134,0.0128,0.0124,0.0121,0.0125,0.0098,0.0092,0.0149,0.0149,0.0149,0,0,0.0158,0.0159,0.016,0.0155,0.0155,0.015,0.0156,0.0156,0.015,0.0161,0.0157,0.0152,0.0148,0.0136,0.013,0.0139,0.0101,0.0118,0.0116,0.0121,0.0094,0.0089,0.0084,0.0147,0.0148,0.0148,0,0,0.0164,0.0162,0.0166,0.0161,0.0156,0.0152,0.0148,0.0145,0.0145,0.0133,0.0135,0.0123,0.0116,0.011,0.0106,0.0077,0.0081,0.0071,0.0064,0.0037,0.0032,0.0028,0.0013,0.0008,0.0072,0.0072,0.0072,0,0.0165,0.0166,0.0165,0.0165,0.0162,0.0149,0.0145,0.0139,0.0133,0.013,0.0129,0.0109,0.0103,0.0086,0.0075,0.007,0.006,0.0084,0.0033,0.0029,0.0025,0.0011,0.0005,0.0071,0.0071,0.0071,0.0071,0,0.0171,0.017,0.0171,0.0164,0.0159,0.0154,0.0138,0.0131,0.0121,0.0115,0.0096,0.0084,0.0076,0.0062,0.006,0.0029,0.0032,0.0031,0.0048,0.0019,0.0005,-0.0,0.0069,0.007,0.007,0.007,0,0,0.0174,0.0175,0.0175,0.0174,0.0159,0.0156,0.0139,0.0124,0.0121,0.01,0.0095,0.0062,0.0058,0.0052,0.0042,0.0015,-0.0027,0.0011,0.001,0.0004,-0.008,-0.0087,-0.0093,-0.0037,-0.0038,-0.0039,-0.0079,0,0.0175,0.018,0.0177,0.0172,0.017,0.0156,0.0145,0.013,0.0116,0.0109,0.0082,0.0073,0.0053,0.005,0.0016,-0.0006,-0.0042,-0.0015,-0.0057,-0.0058,-0.0054,-0.01,-0.0086,-0.0122,-0.0085,-0.0085,-0.0086,0,0.0179,0.0183,0.0185,0.0182,0.018,0.0172,0.016,0.0151,0.0131,0.0123,0.0103,0.0091,0.0057,0.0039,-0.0026,-0.0007,-0.005,-0.0077,-0.0079,-0.0081,-0.0075,-0.0088,-0.0133,-0.0215,-0.0094,-0.0094,-0.0093,0,0.0189,0.0188,0.0193,0.0191,0.0184,0.018,0.0172,0.0156,0.0156,0.0136,0.014,0.0096,0.0088,0.0023,-0.003,-0.0032,-0.01,-0.0108,-0.0159,-0.0159,-0.0153,-0.0151,-0.0274,-0.0175,-0.0175,-0.0175,-0.0175,0,0.0195,0.0199,0.0199,0.0202,0.0205,0.0195,0.0197,0.0184,0.0178,0.0187,0.0153,0.0157,0.0081,0.0042,-0.0025,-0.0101,-0.01,-0.0169,-0.0177,-0.0159,-0.0157,-0.0231,-0.0292,-0.0177,-0.0176,-0.0176,-0.0176,0,0.0208,0.0209,0.0214,0.021,0.0211,0.0213,0.0215,0.0221,0.0213,0.0225,0.0223,0.0201,0.0156,0.0079,-0.0013,-0.0083,-0.0215,-0.0193,-0.016,-0.0164,-0.0293,-0.0356,-0.0485,-0.0526,-0.0262,-0.0262,-0.0263,0,0.0221,0.0225,0.0224,0.023,0.0229,0.0234,0.0241,0.0235,0.0248,0.0258,0.0272,0.0241,0.0235,0.0107,-0.0024,-0.0146,-0.023,-0.0225,-0.024,-0.0311,-0.0387,-0.0418,-0.0446,-0.0237,-0.0237,-0.0238,-0.0238,0,0.0242,0.0237,0.024,0.0248,0.0256,0.0273,0.0284,0.03,0.0306,0.0328,0.0356,0.0358,0.0246,0.0154,-0.0012,-0.0115,-0.0292,-0.0233,-0.0322,-0.0399,-0.0427,-0.0465,-0.0191,-0.0239,-0.0239,-0.0239,-0.0239,-0.0239,0.0253,0.0259,0.0258,0.0267,0.028,0.031,0.0333,0.0363,0.0401,0.0455,0.0441,0.0488,0.0348,0.0133,-0.0044,-0.0308,-0.0322,-0.0374,-0.0448,-0.0475,-0.0514,-0.0241,-0.0289,-0.0289,-0.029,-0.029,-0.029,0,0.026,0.0268,0.0281,0.0291,0.0312,0.0318,0.0363,0.0407,0.0469,0.054,0.0581,0.0604,0.0391,0.0158,-0.0188,-0.044,-0.054,-0.0578,-0.0625,-0.0646,-0.0411,-0.0407,-0.0466,-0.0466,-0.0466,-0.0465,-0.0465,-0.0465,0.0269,0.0274,0.0282,0.0316,0.0332,0.038,0.0414,0.0491,0.0561,0.07,0.0793,0.0851,0.0773,0.0066,-0.043,-0.0596,-0.0783,-0.085,-0.0929,-0.0771,-0.0757,-0.0743,-0.0754,-0.0884,-0.0885,-0.1106,-0.1108,-0.111]}],[{"header":{"parameterUnit":"m.s-1","parameterCategory":2,"la1":30.2991,"la2":30.254,"lo1":-89.0895,"lo2":-89.0444,"dy":0.0017,"dx":0.0017,"nx":28,"ny":28,"refTime":"2025-03-12T09:00:00:Z","depth":"2","parameterNumber":2,"parameterNumberName":"U-component_of_CURRENTS"},"data":[0,0,0,0,0,0,0,0,0,0,0,0,0,0,0,0,0,0,0,0,0,0,0,0,0,0,0,0,0,0,0,0,0,0,0,0,0,0,0,0,0,0,0,0,0,0,0,0,0,0,0,0,0,0,0,0,0,0,-0.0087,-0.0087,0,-0.0063,-0.0063,-0.0062,-0.0038,-0.0038,-0.0037,-0.0037,-0.0038,-0.0038,-0.0038,0,0,0,0,0,0,0,0,0,0,0,0,0,-0.0078,-0.0079,-0.0087,-0.0087,-0.0087,-0.0063,-0.0063,-0.0062,-0.0038,-0.0038,-0.0037,-0.0037,-0.0038,-0.0038,-0.0038,0,0,0,0,0,0,0,0,0,0,0,0,0,-0.007,-0.0079,-0.0087,-0.0073,-0.0071,-0.0063,-0.0063,-0.0062,-0.0038,-0.0038,-0.0037,-0.0037,-0.0038,-0.0038,-0.0038,-0.0046,0,0,-0.0039,-0.0039,0,0,0,0,0,0,0,0,-0.007,-0.007,-0.0075,-0.0074,-0.0072,-0.0054,-0.006,-0.0058,-0.0038,-0.0049,-0.0037,-0.0037,-0.0047,-0.0046,-0.004,-0.0046,-0.0046,-0.0039,-0.0039,-0.0039,-0.0039,0,0,0,0,0,0,0,-0.0071,-0.0071,-0.0076,-0.0075,-0.0073,-0.0056,-0.0055,-0.0059,-0.0049,-0.0048,-0.0047,-0.0046,-0.0046,-0.004,-0.004,-0.0046,-0.0039,-0.0039,-0.004,-0.004,-0.0036,-0.0036,0,0,0,0,0,0,-0.0079,-0.0072,-0.0077,-0.0076,-0.0072,-0.0057,-0.0055,-0.0059,-0.0049,-0.0047,-0.0047,-0.0045,-0.0039,-0.004,-0.004,-0.0031,-0.0039,-0.004,-0.004,-0.0036,-0.0036,-0.0036,0,0,0,0,0,0,-0.0079,-0.008,-0.0078,-0.0074,-0.0072,-0.0058,-0.0062,-0.0059,-0.0046,-0.0047,-0.0046,-0.0036,-0.0039,-0.004,-0.0035,-0.0032,-0.004,-0.004,-0.0037,-0.0036,-0.0036,-0.0026,0,0,0,0,0,0,-0.0079,-0.008,-0.0081,-0.0074,-0.0073,-0.0072,-0.0062,-0.0059,-0.0047,-0.0045,-0.0038,-0.0038,-0.0039,-0.0034,-0.0035,-0.0032,-0.004,-0.0037,-0.0036,-0.0036,-0.0026,-0.0025,-0.0024,0,0,0,0,0,-0.0079,-0.008,-0.0081,-0.0082,-0.0077,-0.0072,-0.0069,-0.0057,-0.0047,-0.0043,-0.0034,-0.0038,-0.0031,-0.0034,-0.0035,-0.0033,-0.0037,-0.0037,-0.0036,-0.0027,-0.0025,-0.0024,0,0,0,0,0,0,-0.0072,-0.0078,-0.0079,-0.0081,-0.0078,-0.0068,-0.006,-0.0054,-0.0042,-0.0035,-0.0035,-0.0035,-0.0029,-0.0032,-0.0035,-0.0029,-0.0035,-0.0034,-0.0028,-0.0026,-0.0025,-0.001,-0.0041,0,0,0,0,0,-0.0074,-0.0077,-0.008,-0.0079,-0.0078,-0.0068,-0.0063,-0.0055,-0.0047,-0.004,-0.0035,-0.003,-0.0029,-0.0028,-0.0027,-0.0026,-0.0012,-0.0024,-0.0023,-0.0022,-0.001,0.0008,0.0012,-0.0034,-0.0034,-0.0034,0,0,-0.007,-0.0074,-0.0075,-0.0078,-0.0071,-0.0068,-0.0063,-0.0052,-0.0045,-0.0044,-0.0027,-0.0025,-0.0027,-0.0022,-0.002,-0.0024,-0.0,-0.0021,-0.002,-0.0009,0.0009,0.0014,0.0018,-0.0033,-0.0033,-0.0033,0,0,-0.0063,-0.0068,-0.0068,-0.0068,-0.0062,-0.0059,-0.0057,-0.0046,-0.0036,-0.0027,-0.0021,-0.0013,-0.0014,-0.0009,-0.001,-0.0001,0.0007,-0.0004,0.0012,0.0029,0.0034,0.0037,0.0068,0.0074,-0.0005,-0.0005,-0.0005,0,-0.0056,-0.0061,-0.0065,-0.0064,-0.006,-0.0056,-0.0051,-0.0044,-0.0031,-0.0021,-0.0021,-0.0002,-0.0006,0.0004,0.001,0.0002,0.0019,0.0005,0.0032,0.0036,0.0039,0.007,0.0076,-0.0004,-0.0004,-0.0005,-0.0005,0,-0.0052,-0.0053,-0.005,-0.0052,-0.0049,-0.0042,-0.0039,-0.0029,-0.0018,-0.0009,0.0009,0.0012,0.0026,0.002,0.0018,0.004,0.0047,0.0032,0.0029,0.0045,0.0075,0.0082,-0.0004,-0.0004,-0.0004,-0.0004,0,0,-0.0039,-0.0047,-0.0044,-0.0043,-0.0041,-0.0037,-0.0027,-0.0016,0.0002,0.0012,0.0037,0.0039,0.0051,0.0053,0.0052,0.0065,0.0103,0.0063,0.0063,0.0095,0.0157,0.029,0.0311,0.0093,0.0094,0.0095,0.0171,0,-0.0031,-0.0032,-0.0035,-0.0027,-0.0028,-0.0022,-0.0011,0.0001,0.0015,0.004,0.0049,0.0071,0.0059,0.0073,0.0084,0.0101,0.0121,0.0085,0.0135,0.0138,0.0256,0.0323,0.0234,0.0306,0.0178,0.0179,0.018,0,-0.0022,-0.0028,-0.0022,-0.0018,-0.0015,-0.0004,0.0018,0.0027,0.0055,0.007,0.0093,0.0105,0.0135,0.0119,0.0163,0.0143,0.0158,0.0166,0.0168,0.0297,0.0285,0.0268,0.0324,0.0191,0.0191,0.019,0.0189,0,-0.0014,-0.0014,-0.001,-0.0009,-0.0005,0.0011,0.0021,0.0044,0.0063,0.0099,0.0129,0.0151,0.0187,0.0197,0.0234,0.0197,0.0294,0.0238,0.0371,0.0379,0.032,0.0324,0.0274,0.0274,0.0274,0.0274,0.0274,0,-0.0008,0.0002,-0.0002,0.0001,0.0019,0.0021,0.0054,0.0068,0.0102,0.0144,0.0153,0.021,0.021,0.0266,0.0266,0.0379,0.0324,0.0409,0.0423,0.0325,0.0328,0.0232,0.0226,0.0277,0.0276,0.0275,0.0275,0,0.001,0.0004,0.0012,0.0016,0.0025,0.0041,0.0075,0.0099,0.0131,0.019,0.0209,0.027,0.0369,0.0391,0.0436,0.0457,0.0515,0.0559,0.0467,0.0473,0.057,0.0563,0.0707,0.0713,0.0718,0.0722,0.0725,0,0.0024,0.0025,0.0027,0.0038,0.0049,0.0072,0.0093,0.0115,0.0144,0.0243,0.0279,0.0397,0.0509,0.0654,0.0724,0.0801,0.0687,0.0722,0.0648,0.0624,0.0621,0.0607,0.0594,0.055,0.0551,0.0553,0.0554,0,0.0052,0.0052,0.005,0.0065,0.0087,0.0106,0.014,0.0163,0.0209,0.0278,0.0405,0.0512,0.0718,0.0802,0.0929,0.0929,0.0707,0.0762,0.0744,0.0491,0.0492,0.0484,0.0473,0.0566,0.0565,0.0564,0.0563,0.0563,0.0082,0.008,0.0076,0.0096,0.0119,0.0147,0.017,0.0214,0.0279,0.0393,0.049,0.0628,0.069,0.0907,0.0948,0.096,0.0991,0.083,0.0816,0.0804,0.081,0.0823,0.0959,0.096,0.0961,0.0962,0.0963,0,0.0102,0.0102,0.0113,0.0121,0.0147,0.0167,0.0208,0.0229,0.0314,0.0442,0.0578,0.0616,0.0739,0.079,0.0891,0.0968,0.0871,0.0859,0.0657,0.0648,0.0639,0.0627,0.0733,0.0733,0.0732,0.0732,0,0,0.0117,0.0112,0.0105,0.0145,0.0172,0.0207,0.0237,0.0281,0.0349,0.0468,0.0546,0.0685,0.0747,0.07,0.0743,0.0747,0.0674,0.0723,0.0902,0.0651,0.064,0.0623,0.0598,0,0,0,0,0]},{"header":{"parameterUnit":"m.s-1","parameterCategory":2,"la1":30.2991,"la2":30.254,"lo1":-89.0895,"lo2":-89.0444,"dy":0.0017,"dx":0.0017,"nx":28,"ny":28,"refTime":"2025-03-12T09:00:00:Z","depth":"2","parameterNumber":3,"parameterNumberName":"V-component_of_CURRENTS"},"data":[0,0,0,0,0,0,0,0,0,0,0,0,0,0,0,0,0,0,0,0,0,0,0,0,0,0,0,0,0,0,0,0,0,0,0,0,0,0,0,0,0,0,0,0,0,0,0,0,0,0,0,0,0,0,0,0,0,0,-0.0186,-0.0186,0,-0.0185,-0.0185,-0.0184,-0.0209,-0.021,-0.0211,-0.0212,-0.0212,-0.0211,-0.021,0,0,0,0,0,0,0,0,0,0,0,0,0,-0.0157,-0.0158,-0.0186,-0.0186,-0.0186,-0.0185,-0.0185,-0.0184,-0.0209,-0.021,-0.0211,-0.0212,-0.0212,-0.0211,-0.021,0,0,0,0,0,0,0,0,0,0,0,0,0,-0.0161,-0.0158,-0.0186,-0.0201,-0.0203,-0.0185,-0.0185,-0.0184,-0.0208,-0.021,-0.0211,-0.0213,-0.0212,-0.0211,-0.021,-0.0171,0,0,-0.0205,-0.0205,0,0,0,0,0,0,0,0,-0.0161,-0.0162,-0.0199,-0.02,-0.0202,-0.0202,-0.0175,-0.0181,-0.0208,-0.0202,-0.0212,-0.0214,-0.021,-0.0209,-0.02,-0.0171,-0.0171,-0.0205,-0.0204,-0.0204,-0.0203,0,0,0,0,0,0,0,-0.0161,-0.0162,-0.0182,-0.0199,-0.0201,-0.0191,-0.0193,-0.0176,-0.0195,-0.0203,-0.0206,-0.0211,-0.021,-0.0201,-0.02,-0.0171,-0.0205,-0.0204,-0.0203,-0.0203,-0.0129,-0.0128,0,0,0,0,0,0,-0.0169,-0.0161,-0.0182,-0.0182,-0.0189,-0.0191,-0.0193,-0.0197,-0.0195,-0.0197,-0.021,-0.0212,-0.0203,-0.0202,-0.02,-0.0195,-0.0204,-0.0203,-0.0202,-0.013,-0.0128,-0.0127,0,0,0,0,0,0,-0.0169,-0.0171,-0.0182,-0.0175,-0.0176,-0.0191,-0.0194,-0.0197,-0.0213,-0.0201,-0.0203,-0.0227,-0.0204,-0.0202,-0.0189,-0.0194,-0.0202,-0.0201,-0.0131,-0.0129,-0.0128,-0.0158,0,0,0,0,0,0,-0.0168,-0.0171,-0.018,-0.0175,-0.0177,-0.0183,-0.0194,-0.0196,-0.0214,-0.0218,-0.0216,-0.0216,-0.0205,-0.0191,-0.0187,-0.0192,-0.02,-0.0133,-0.013,-0.0128,-0.0159,-0.0158,-0.0157,0,0,0,0,0,-0.0167,-0.0172,-0.018,-0.0183,-0.0188,-0.0183,-0.0183,-0.0195,-0.0214,-0.0216,-0.0208,-0.0217,-0.0175,-0.0188,-0.0185,-0.019,-0.0134,-0.0131,-0.0129,-0.0159,-0.0158,-0.0157,0,0,0,0,0,0,-0.0167,-0.0175,-0.0184,-0.0193,-0.0195,-0.0189,-0.0199,-0.0206,-0.0201,-0.0213,-0.0203,-0.0201,-0.019,-0.0176,-0.0192,-0.0157,-0.0155,-0.0152,-0.018,-0.0179,-0.0178,-0.0204,-0.0198,0,0,0,0,0,-0.017,-0.0177,-0.0181,-0.019,-0.0197,-0.0201,-0.0205,-0.0213,-0.0208,-0.021,-0.0208,-0.0194,-0.017,-0.0167,-0.0145,-0.0128,-0.013,-0.0125,-0.0124,-0.0124,-0.0139,-0.0123,-0.0123,-0.0119,-0.0119,-0.0119,0,0,-0.0172,-0.018,-0.0184,-0.0191,-0.0198,-0.0196,-0.0207,-0.022,-0.0216,-0.0208,-0.0208,-0.0195,-0.0163,-0.0142,-0.0136,-0.0138,-0.0127,-0.0121,-0.0121,-0.0137,-0.0121,-0.0121,-0.0122,-0.0117,-0.0117,-0.0118,0,0,-0.0176,-0.019,-0.0197,-0.0199,-0.0214,-0.0209,-0.0219,-0.0223,-0.0228,-0.0218,-0.0207,-0.0196,-0.017,-0.0145,-0.0128,-0.0106,-0.0122,-0.0102,-0.0126,-0.0109,-0.011,-0.0111,-0.013,-0.0132,-0.0104,-0.0104,-0.0104,0,-0.0185,-0.019,-0.0198,-0.0204,-0.0207,-0.0218,-0.022,-0.0215,-0.0212,-0.0213,-0.0225,-0.0186,-0.0168,-0.0132,-0.013,-0.0108,-0.0117,-0.0137,-0.0112,-0.0113,-0.0113,-0.0131,-0.0134,-0.0105,-0.0105,-0.0105,-0.0105,0,-0.0187,-0.0195,-0.0202,-0.0209,-0.0207,-0.0215,-0.021,-0.0215,-0.0228,-0.0222,-0.0212,-0.0185,-0.0171,-0.0154,-0.0142,-0.013,-0.0142,-0.0115,-0.0125,-0.0116,-0.0135,-0.0137,-0.0107,-0.0106,-0.0106,-0.0106,0,0,-0.0212,-0.0204,-0.0212,-0.0211,-0.0214,-0.0212,-0.0208,-0.0203,-0.0205,-0.0209,-0.0208,-0.0177,-0.0193,-0.0173,-0.0155,-0.0144,-0.0161,-0.0147,-0.0145,-0.0184,-0.0162,-0.0182,-0.0187,-0.0138,-0.0138,-0.0138,-0.018,0,-0.0222,-0.0221,-0.0215,-0.0213,-0.0213,-0.0213,-0.0201,-0.0198,-0.0199,-0.0198,-0.0189,-0.0181,-0.0188,-0.0193,-0.0185,-0.0159,-0.0166,-0.0155,-0.0148,-0.0148,-0.0182,-0.0188,-0.0159,-0.0195,-0.0182,-0.0183,-0.0183,0,-0.0241,-0.0233,-0.0231,-0.0212,-0.0215,-0.0215,-0.0211,-0.0202,-0.0196,-0.0202,-0.021,-0.0207,-0.0206,-0.0205,-0.0198,-0.0198,-0.0199,-0.0181,-0.0182,-0.0195,-0.0171,-0.0195,-0.0199,-0.0186,-0.0186,-0.0186,-0.0185,0,-0.026,-0.025,-0.0246,-0.0243,-0.0221,-0.023,-0.0227,-0.0219,-0.0206,-0.0221,-0.0219,-0.0224,-0.0224,-0.0226,-0.0226,-0.0218,-0.0215,-0.0186,-0.0208,-0.021,-0.0181,-0.018,-0.0188,-0.0188,-0.0187,-0.0187,-0.0187,0,-0.0277,-0.028,-0.0261,-0.0262,-0.0257,-0.0249,-0.0249,-0.0248,-0.0238,-0.0212,-0.0238,-0.0208,-0.023,-0.0229,-0.0236,-0.0245,-0.023,-0.023,-0.0221,-0.0191,-0.0191,-0.0171,-0.0169,-0.0189,-0.0189,-0.0188,-0.0188,0,-0.0309,-0.0296,-0.0288,-0.0271,-0.027,-0.0277,-0.0262,-0.0249,-0.0254,-0.0223,-0.0232,-0.021,-0.0212,-0.0239,-0.023,-0.0251,-0.0254,-0.0259,-0.0249,-0.0238,-0.0264,-0.0262,-0.0294,-0.0295,-0.0296,-0.0297,-0.0298,0,-0.0322,-0.0324,-0.0302,-0.0292,-0.0293,-0.0294,-0.0281,-0.0272,-0.0244,-0.0198,-0.0169,-0.0175,-0.0119,-0.0154,-0.021,-0.0259,-0.0262,-0.0288,-0.0257,-0.0286,-0.0274,-0.0271,-0.0268,-0.0235,-0.0235,-0.0235,-0.0235,0,-0.0343,-0.0341,-0.0326,-0.0306,-0.0298,-0.0268,-0.0251,-0.0219,-0.0184,-0.0129,-0.0035,0.0015,-0.0033,-0.0053,-0.0173,-0.0198,-0.0284,-0.0291,-0.0306,-0.0215,-0.0234,-0.022,-0.0219,-0.0236,-0.0236,-0.0236,-0.0236,-0.0236,-0.0357,-0.0349,-0.0326,-0.0309,-0.0284,-0.023,-0.0192,-0.0129,-0.0045,0.0066,0.0094,0.0172,0.0056,-0.0048,-0.0146,-0.0275,-0.0254,-0.0289,-0.0287,-0.0286,-0.0273,-0.0292,-0.0305,-0.0306,-0.0306,-0.0306,-0.0307,0,-0.0358,-0.0343,-0.0323,-0.0279,-0.0236,-0.0236,-0.015,-0.0079,0.006,0.0159,0.0266,0.018,0.0147,-0.0001,-0.0167,-0.0265,-0.0258,-0.0316,-0.0277,-0.0275,-0.0274,-0.0259,-0.0289,-0.029,-0.029,-0.029,0,0,-0.0349,-0.0333,-0.0318,-0.0244,-0.0214,-0.0141,-0.0083,0.0037,0.0132,0.0274,0.0317,0.0356,0.0183,0.0039,-0.0099,-0.0185,-0.0206,-0.0206,-0.0203,-0.0137,-0.0134,-0.0237,-0.0211,0,0,0,0,0]}],[{"header":{"parameterUnit":"m.s-1","parameterCategory":2,"la1":30.2991,"la2":30.254,"lo1":-89.0895,"lo2":-89.0444,"dy":0.0017,"dx":0.0017,"nx":28,"ny":28,"refTime":"2025-03-12T09:00:00:Z","depth":"4","parameterNumber":2,"parameterNumberName":"U-component_of_CURRENTS"},"data":[0,0,0,0,0,0,0,0,0,0,0,0,0,0,0,0,0,0,0,0,0,0,0,0,0,0,0,0,0,0,0,0,0,0,0,0,0,0,0,0,0,0,0,0,0,0,0,0,0,0,0,0,0,0,0,0,0,0,0.0231,0.0231,0,0.0196,0.0196,0.0195,0.0187,0.0187,0.0188,0.0188,0.0171,0.017,0.0169,0,0,0,0,0,0,0,0,0,0,0,0,0,0.026,0.026,0.0231,0.0231,0.023,0.0196,0.0196,0.0195,0.0187,0.0187,0.0188,0.0188,0.0171,0.017,0.0169,0,0,0,0,0,0,0,0,0,0,0,0,0,0.0238,0.026,0.0231,0.0222,0.0221,0.0196,0.0196,0.0195,0.0187,0.0187,0.0188,0.0188,0.0171,0.017,0.0169,0.0154,0,0,0.0166,0.0165,0,0,0,0,0,0,0,0,0.024,0.0237,0.0224,0.0223,0.0222,0.0197,0.02,0.0182,0.0187,0.02,0.0188,0.0188,0.0181,0.0179,0.0171,0.0153,0.0153,0.0166,0.0165,0.0165,0.0164,0,0,0,0,0,0,0,0.0241,0.0238,0.0217,0.0224,0.0222,0.021,0.0207,0.0196,0.0188,0.0198,0.0198,0.0195,0.0181,0.0172,0.017,0.0152,0.0166,0.0165,0.0164,0.0164,0.0087,0.0086,0,0,0,0,0,0,0.0247,0.024,0.0218,0.0216,0.0232,0.0209,0.0206,0.0204,0.0188,0.0186,0.0194,0.0194,0.0173,0.0172,0.017,0.013,0.0165,0.0164,0.0163,0.0089,0.0087,0.0086,0,0,0,0,0,0,0.0248,0.0246,0.0219,0.0227,0.0223,0.0208,0.0206,0.0203,0.0204,0.0185,0.0183,0.02,0.0174,0.0171,0.0162,0.013,0.0163,0.0162,0.009,0.0088,0.0086,0.0064,0,0,0,0,0,0,0.0249,0.0246,0.025,0.0228,0.0223,0.021,0.0205,0.0202,0.0201,0.0201,0.0189,0.0187,0.0174,0.0163,0.0161,0.0129,0.0161,0.0092,0.0089,0.0087,0.0067,0.0062,0.0057,0,0,0,0,0,0.025,0.0249,0.0251,0.0248,0.0228,0.021,0.0207,0.0197,0.0201,0.0201,0.019,0.0188,0.0144,0.0162,0.0159,0.0127,0.0093,0.009,0.0087,0.0069,0.0063,0.0057,0,0,0,0,0,0,0.0259,0.0248,0.0249,0.0244,0.0233,0.0209,0.0208,0.0204,0.0194,0.02,0.0183,0.018,0.0155,0.0147,0.0167,0.0094,0.0113,0.0109,0.0099,0.0094,0.0089,0.0102,0.016,0,0,0,0,0,0.0265,0.0266,0.025,0.0248,0.0245,0.023,0.0225,0.022,0.0206,0.0203,0.019,0.0169,0.0136,0.0124,0.0104,0.0075,0.0093,0.0047,0.0042,0.0038,0.0044,0.0025,0.002,0.0075,0.0075,0.0075,0,0,0.0268,0.0263,0.0263,0.0251,0.0243,0.0236,0.0228,0.0223,0.0215,0.0203,0.0191,0.0162,0.0128,0.0088,0.0074,0.008,0.0038,0.0034,0.0031,0.004,0.0021,0.0016,0.0012,0.0073,0.0074,0.0074,0,0,0.0269,0.0271,0.0271,0.0264,0.0258,0.0247,0.025,0.0232,0.0224,0.0204,0.0183,0.0146,0.0107,0.0069,0.0045,0.0006,0.0019,-0.0017,-0.0035,-0.0055,-0.0059,-0.0063,-0.0012,-0.0011,-0.0025,-0.0026,-0.0026,0,0.0275,0.0273,0.0268,0.0265,0.0261,0.0255,0.0252,0.0239,0.0219,0.0208,0.0201,0.012,0.0095,0.0034,0.0004,-0.0004,0.0007,-0.0009,-0.0059,-0.0063,-0.0066,-0.0013,-0.0012,-0.0027,-0.0027,-0.0027,-0.0027,0,0.0273,0.0275,0.0274,0.0271,0.0266,0.0264,0.0248,0.024,0.0227,0.0207,0.0155,0.0107,0.0053,0.0024,-0.0003,-0.0059,-0.0032,-0.0055,-0.0039,-0.0072,-0.0015,-0.0013,-0.0029,-0.0029,-0.0028,-0.0028,0,0,0.0276,0.0274,0.0275,0.0277,0.0272,0.0266,0.0255,0.0235,0.0226,0.0184,0.0153,0.0069,0.0036,0.0005,-0.0042,-0.0071,-0.0083,-0.0084,-0.0084,-0.0021,-0.0079,-0.0009,0.0001,-0.0126,-0.0127,-0.0128,-0.0016,0,0.0278,0.0277,0.0275,0.0276,0.0274,0.0267,0.0256,0.0239,0.0215,0.0185,0.0123,0.0072,0.0029,-0.0016,-0.0054,-0.0085,-0.0086,-0.0107,-0.0067,-0.0064,0.0011,0.0001,-0.013,-0.0014,-0.0014,-0.0013,-0.0013,0,0.0275,0.0276,0.0277,0.0278,0.0278,0.0277,0.0263,0.025,0.0211,0.0184,0.0122,0.0077,0.0008,-0.0022,-0.0065,-0.0082,-0.008,-0.0086,-0.0083,-0.0009,0.0008,0.0015,-0.0009,-0.0009,-0.001,-0.001,-0.001,0,0.0274,0.0278,0.0281,0.0281,0.0278,0.0278,0.0275,0.025,0.0239,0.0177,0.0159,0.0078,0.0045,-0.0,-0.0019,-0.0057,-0.002,-0.0071,0.0018,0.0027,-0.0058,-0.0056,-0.0072,-0.0072,-0.0072,-0.0072,-0.0073,0,0.0271,0.0274,0.0284,0.0283,0.0286,0.0284,0.028,0.0259,0.0236,0.0224,0.0152,0.0131,0.0042,0.0045,0.0011,0.0046,0.0009,0.0033,0.0048,-0.0065,-0.0065,-0.0053,-0.0053,-0.0068,-0.0069,-0.007,-0.0071,0,0.0262,0.027,0.0272,0.0279,0.0284,0.0283,0.0289,0.0279,0.0262,0.0245,0.022,0.0182,0.0184,0.016,0.0133,0.0117,0.012,0.0154,0.0107,0.0116,0.0178,0.0176,0.0239,0.0242,0.0245,0.0247,0.0249,0,0.0256,0.0257,0.0268,0.027,0.0275,0.0281,0.028,0.0276,0.0269,0.028,0.0269,0.0287,0.0261,0.0308,0.0267,0.0272,0.0257,0.0278,0.0149,0.0196,0.0204,0.0198,0.0192,0.0253,0.0254,0.0255,0.0255,0,0.0243,0.0249,0.0249,0.0257,0.0262,0.0267,0.0274,0.0278,0.028,0.028,0.0307,0.0314,0.0362,0.0342,0.0388,0.0366,0.0249,0.0304,0.0296,0.0175,0.0214,0.0218,0.0209,0.0265,0.0263,0.0263,0.0262,0,0.0234,0.0231,0.0237,0.024,0.0249,0.0254,0.0258,0.0274,0.0282,0.0303,0.0327,0.0354,0.0372,0.0399,0.0419,0.0431,0.0389,0.0338,0.0327,0.0317,0.0284,0.0341,0.0458,0,0,0,0,0,0.0226,0.0223,0.0222,0.0228,0.0236,0.0245,0.0254,0.0259,0.0284,0.0303,0.0317,0.0355,0.0398,0.0414,0.0437,0.0444,0.0385,0.0469,0.0319,0.0316,0.0305,0.0257,0,0,0,0,0,0,0.0219,0.0221,0.0218,0.0222,0.0227,0.0236,0.0243,0.0255,0.0269,0.0297,0.0321,0.035,0.0391,0.0391,0.0435,0.0443,0.0345,0.0496,0.0496,0.0322,0.0312,0.0304,0.025,0,0,0,0,0]},{"header":{"parameterUnit":"m.s-1","parameterCategory":2,"la1":30.2991,"la2":30.254,"lo1":-89.0895,"lo2":-89.0444,"dy":0.0017,"dx":0.0017,"nx":28,"ny":28,"refTime":"2025-03-12T09:00:00:Z","depth":"4","parameterNumber":3,"parameterNumberName":"V-component_of_CURRENTS"},"data":[0,0,0,0,0,0,0,0,0,0,0,0,0,0,0,0,0,0,0,0,0,0,0,0,0,0,0,0,0,0,0,0,0,0,0,0,0,0,0,0,0,0,0,0,0,0,0,0,0,0,0,0,0,0,0,0,0,0,-0.0273,-0.0273,0,-0.0308,-0.0309,-0.0309,-0.0329,-0.0329,-0.0329,-0.0329,-0.04,-0.0401,-0.0403,0,0,0,0,0,0,0,0,0,0,0,0,0,-0.0213,-0.0215,-0.0273,-0.0273,-0.0274,-0.0308,-0.0309,-0.0309,-0.0329,-0.0329,-0.0329,-0.0329,-0.0399,-0.0401,-0.0404,0,0,0,0,0,0,0,0,0,0,0,0,0,-0.0244,-0.0215,-0.0273,-0.0287,-0.0288,-0.0308,-0.0309,-0.031,-0.0329,-0.0329,-0.0329,-0.0329,-0.0398,-0.0401,-0.0404,-0.0423,0,0,-0.0413,-0.0414,0,0,0,0,0,0,0,0,-0.0242,-0.0247,-0.0284,-0.0286,-0.0288,-0.0313,-0.0314,-0.0349,-0.0329,-0.0315,-0.0329,-0.0329,-0.0373,-0.0378,-0.0386,-0.0426,-0.0429,-0.0413,-0.0415,-0.0416,-0.0417,0,0,0,0,0,0,0,-0.024,-0.0245,-0.0288,-0.0285,-0.0287,-0.0288,-0.0293,-0.032,-0.0346,-0.0316,-0.0317,-0.0319,-0.0375,-0.0383,-0.0388,-0.043,-0.0413,-0.0415,-0.0417,-0.0418,-0.0543,-0.0544,0,0,0,0,0,0,-0.0234,-0.0243,-0.0287,-0.0289,-0.0263,-0.0289,-0.0294,-0.0306,-0.0345,-0.035,-0.032,-0.032,-0.0378,-0.0385,-0.0391,-0.0448,-0.0416,-0.0419,-0.042,-0.0541,-0.0543,-0.0545,0,0,0,0,0,0,-0.0233,-0.0238,-0.0286,-0.0265,-0.0271,-0.029,-0.0303,-0.0307,-0.033,-0.0347,-0.0353,-0.0341,-0.0379,-0.0387,-0.043,-0.0449,-0.042,-0.0422,-0.0539,-0.0542,-0.0544,-0.0542,0,0,0,0,0,0,-0.0232,-0.0238,-0.025,-0.0265,-0.0272,-0.0305,-0.0303,-0.0307,-0.033,-0.0332,-0.0367,-0.0372,-0.0379,-0.0425,-0.0433,-0.0453,-0.0425,-0.0537,-0.054,-0.0543,-0.054,-0.0544,-0.0547,0,0,0,0,0,-0.0229,-0.0246,-0.025,-0.0256,-0.0286,-0.0305,-0.031,-0.0323,-0.0331,-0.0344,-0.037,-0.0372,-0.0449,-0.0429,-0.0437,-0.0458,-0.0536,-0.0539,-0.0543,-0.0538,-0.0543,-0.0547,0,0,0,0,0,0,-0.023,-0.0249,-0.0255,-0.0278,-0.0293,-0.0308,-0.0322,-0.0334,-0.0365,-0.0375,-0.0389,-0.0397,-0.0445,-0.0458,-0.0434,-0.0506,-0.0495,-0.05,-0.0488,-0.0493,-0.0496,-0.0476,-0.0427,0,0,0,0,0,-0.0234,-0.0251,-0.0267,-0.0286,-0.0295,-0.0313,-0.0325,-0.0338,-0.0362,-0.0376,-0.0406,-0.0438,-0.0465,-0.0482,-0.0513,-0.055,-0.0527,-0.0572,-0.0576,-0.0578,-0.057,-0.0536,-0.0534,-0.0556,-0.0556,-0.0556,0,0,-0.0241,-0.0252,-0.0264,-0.0287,-0.0301,-0.032,-0.0321,-0.0348,-0.0373,-0.0381,-0.0436,-0.0457,-0.048,-0.052,-0.0543,-0.0532,-0.0566,-0.0583,-0.0585,-0.0574,-0.0539,-0.0536,-0.0534,-0.0559,-0.0558,-0.0558,0,0,-0.0255,-0.0273,-0.0288,-0.0301,-0.0324,-0.0338,-0.0349,-0.0382,-0.0406,-0.0458,-0.0466,-0.0496,-0.0556,-0.0561,-0.0572,-0.0618,-0.0589,-0.0637,-0.0632,-0.0599,-0.0596,-0.0592,-0.057,-0.0565,-0.0633,-0.0633,-0.0633,0,-0.0262,-0.0282,-0.0296,-0.0311,-0.0324,-0.0348,-0.0368,-0.0397,-0.0445,-0.0463,-0.0484,-0.0553,-0.0574,-0.0593,-0.0603,-0.0624,-0.0596,-0.0607,-0.0599,-0.0595,-0.0592,-0.057,-0.0564,-0.0633,-0.0633,-0.0633,-0.0633,0,-0.0282,-0.0301,-0.0312,-0.0338,-0.0357,-0.038,-0.0412,-0.0451,-0.0491,-0.0512,-0.0564,-0.0592,-0.062,-0.0639,-0.0633,-0.0625,-0.061,-0.0606,-0.0575,-0.0588,-0.0566,-0.056,-0.0634,-0.0634,-0.0634,-0.0633,0,0,-0.0291,-0.032,-0.0324,-0.0334,-0.0373,-0.0389,-0.0439,-0.0476,-0.0502,-0.0561,-0.059,-0.0634,-0.0635,-0.0647,-0.0647,-0.062,-0.0577,-0.0594,-0.0592,-0.055,-0.0497,-0.0486,-0.0478,-0.0553,-0.0551,-0.055,-0.0494,0,-0.0302,-0.0327,-0.0343,-0.0374,-0.039,-0.0423,-0.0457,-0.0497,-0.0543,-0.0581,-0.0609,-0.0638,-0.0641,-0.0647,-0.0622,-0.0593,-0.0558,-0.0592,-0.051,-0.0508,-0.0478,-0.047,-0.0547,-0.0489,-0.0487,-0.0486,-0.0485,0,-0.0314,-0.0328,-0.0357,-0.0382,-0.0392,-0.042,-0.0471,-0.0507,-0.0556,-0.0589,-0.0618,-0.063,-0.0623,-0.062,-0.0563,-0.0578,-0.0529,-0.0505,-0.0501,-0.0483,-0.0484,-0.0474,-0.0474,-0.0475,-0.0475,-0.0476,-0.0477,0,-0.0305,-0.0335,-0.0357,-0.0368,-0.0406,-0.0433,-0.0464,-0.0514,-0.0538,-0.0588,-0.0598,-0.0607,-0.0602,-0.056,-0.0527,-0.0523,-0.0459,-0.0451,-0.0399,-0.0398,-0.0424,-0.0428,-0.0385,-0.0385,-0.0385,-0.0385,-0.0385,0,-0.0306,-0.0324,-0.0356,-0.0369,-0.0391,-0.0428,-0.0462,-0.05,-0.0542,-0.0542,-0.0588,-0.0578,-0.0574,-0.0548,-0.0516,-0.0449,-0.0449,-0.0388,-0.0376,-0.043,-0.0435,-0.0419,-0.0424,-0.0383,-0.0383,-0.0384,-0.0384,0,-0.0298,-0.032,-0.034,-0.0377,-0.0389,-0.0412,-0.0453,-0.0469,-0.0514,-0.0519,-0.0523,-0.0537,-0.0494,-0.0504,-0.0439,-0.0422,-0.0376,-0.0346,-0.0418,-0.0413,-0.0335,-0.0341,-0.0265,-0.0264,-0.0263,-0.0262,-0.0262,0,-0.0295,-0.0307,-0.0337,-0.0344,-0.0366,-0.0399,-0.041,-0.0458,-0.0464,-0.0474,-0.0458,-0.0439,-0.0436,-0.0364,-0.0372,-0.034,-0.0325,-0.0311,-0.0304,-0.0323,-0.0319,-0.0326,-0.0333,-0.026,-0.026,-0.026,-0.0259,0,-0.0285,-0.0301,-0.0315,-0.0326,-0.0341,-0.0351,-0.0373,-0.0369,-0.0396,-0.0417,-0.0373,-0.0361,-0.032,-0.0311,-0.0307,-0.0278,-0.0335,-0.0301,-0.0302,-0.0295,-0.0317,-0.0315,-0.0323,-0.0256,-0.0257,-0.0257,-0.0257,0,-0.0273,-0.0279,-0.0294,-0.0304,-0.0313,-0.0312,-0.0326,-0.0313,-0.0321,-0.0324,-0.0293,-0.0289,-0.0288,-0.0274,-0.0265,-0.0258,-0.023,-0.0217,-0.0222,-0.0225,-0.0244,-0.0268,-0.0169,0,0,0,0,0,-0.0251,-0.0258,-0.0267,-0.0278,-0.0285,-0.0294,-0.0296,-0.0307,-0.0308,-0.0257,-0.0281,-0.0241,-0.0221,-0.0228,-0.0207,-0.0247,-0.0246,-0.0223,-0.0237,-0.024,-0.0243,-0.0273,0,0,0,0,0,0,-0.0241,-0.0248,-0.0259,-0.0255,-0.0258,-0.0264,-0.0266,-0.0268,-0.0245,-0.0242,-0.0232,-0.0225,-0.0216,-0.0228,-0.0203,-0.0205,-0.0206,-0.0223,-0.0222,-0.0238,-0.0241,-0.0244,-0.0275,0,0,0,0,0]}]]